FENGYUN 3D

Satellite information

Favourite Embed

Satellite Type and Status

PAYLOADIN ORBIT

Key statistics

Satellite FENGYUN 3D at a glance.

Uptime

2734

Days in orbit

Revolutions

≈ 14.2

Per day

Orbit

SSO

Sun Synchronous Orbit

Inclination

99.0

Latest

Satellite identification and parameters

Extended collection of information and parameters for FENGYUN 3D.

Object identification

Identified? True

Debris? False

Object name: FENGYUN 3D

International designator: 2017-072A

Object number (NORAD): 43010

Object ID (CCSDS): 43010

Country: PEOPLES REPUBLIC OF CHINA (PRC)

Current information (Y/N): Y

RCS size: LARGE

Orbital parameters

Period: 101.436 minutes

Inclination: 98.9601 deg

SMA: 7204.771 km

Apoapsis: 828.432 km

Periapsis: 824.841 km

RAAN: 93.3258 deg

Eccentricy: 0.0002492

Argument of periapsis: 107.3294 deg

Mean anomaly: 252.8154 deg

Mean motion: 14.19621151 rev/day

Mean motion (dot): 0.00000118 rev/day2

B* drag term: 0.000077307 1/REarth

Two-line elements (TLE)

Creation date: May 10, 2025, 2:32 a.m.

Reference frame: TEME

Reference center: EARTH

Epoch: May 9, 2025, 8:56 p.m. UTC

TLE line 0: 0 FENGYUN 3D

TLE line 1: 1 43010U 17072A 25129.87280729 .00000118 00000-0 77307-4 0 9995

TLE line 2: 2 43010 98.9601 93.3258 0002492 107.3294 252.8154 14.19621151387765

Live tracking on map

Real-time ground track for satellite FENGYUN 3D.

In-orbit conjunctions

There are no conjunctions computed for FENGYUN 3D, at the moment. Check back to stay up to date, as we update our databases every day.

Go to all conjunctions

Associated space launch

Fengyun-3D (also known as FY-3D) is a polar orbiting meteorological satellite. It is tasked with ocean and ice monitoring, as well as studying atmospheric chemistry and space weather. The satellite is expected to operate for 5 years.

FENGYUN 3D was lifted into orbit during the mission ‘Long March 4C | Fengyun-3D’, on board a Long March 4C space rocket.

The launch took place on Nov. 14, 2017, 6:35 p.m. from Launch Complex 9.

For more information about the launch, click the button.

Launch to space Long March 4C | Fengyun-3D
Long March 4C | Fengyun-3D

Agency: N/A

Status: Launch Successful

Launch date: Nov. 14, 2017, 6:35 p.m. UTC

Rocket: Long March 4C

Launch pad: Launch Complex 9

Location: Taiyuan Satellite Launch Center, People's Republic of China

...

Latest news about this satellite

There are no fresh news available about this satellite. Check back as we update our databases every day.


Newsletter sign-up

Weekly statistics, charts and insights to help you stay on top of the space industry.